SL-14 DEB, 45298

Orbit data source: Space-Track

SL-14 DEB, 45298 is space debris in LEO originally from a launch on Thu, 15 Aug 1991 UTC launched from the Plesetsk Missile And Space Complex (PKMTR). Debris objects in space refer to the collection of defunct objects orbiting the Earth. Examples of debris include non-operational satellites, rocket bodies, and fragments generated from explosions, collisions, or faulty payload assembly.

Loading next visibility...
SL-14 DEB details
Identifier
45298, 1991-056AL
Orbit
LEO
Last TLE update19 hours ago
Origin
Flag of CISRosgidromet (CIS)
ManufacturerUnknown
MissionSpacecraft
Bus & MotorUnknown
MassUnknown
Launch date (UTC)
1991-08-15 (33 years ago)
Launch vehicleUnknown
Launch site
Plesetsk Missile And Space Complex (PKMTR)
Object type
Payload
Rocket body
Debris
Shape & HBRUnknown
Radar Cross SectionMedium (>0.1 m² and <1 m²)

Expand to show TLE details & history

TLE from 19 hours ago
0 SL-14 DEB
1 45298U 91056AL  24360.64181672  .00009754  00000-0  11743-1 0  9991
2 45298  82.5877  85.8144 0159871  73.2182 288.6435 13.61274555238526
Epoch: 2024-12-25T15:24Z
Definitive object data (Epoch: 2024-12-25T15:24:12.964Z)
Latitude-0.00011°
Longitude120.12773°
Altitude997.775 km
Speed7.371 km/s
True Right ascension05h 43m 15s
True Declination0° 00' 00"
Sunlit
Object was in full shadow at TLE epoch
Visualization TLE readout
Latitude5.5657°
Longitude120.23494°
Altitude982.343 km
Speed7.386 km/s
Apparent Right ascension03h 04m 24s
Apparent Declination-25° 31' 50"
Sunlit
Object is in full shadow
Visualization observer readout
Local Sidereal Time10:11:19
Azimuth259.262° W
Elevation-28.41°
Doppler factor1
Orbital elements
Apogee altitude1,146.651 km
Perigee altitude909.838 km
Semi-major axis7,406.381 km
Eccentricity0.0159871
Inclination82.5877°
RAAN85.8144°
Arg. of periapsis73.2182°
True anomaly286.89676°
Mean anomaly288.6435°
Eccentric anomaly287.77122°
Mean motion3.40513 °/min
BSTAR0.011743
Orbital period105.72 mins
Loading maneuver chart data...
Loading historical data...
Loading historical data...
Loading historical data...
Loading historical data...
Loading historical data...
Loading historical data...
Loading historical data...

SL-14 DEB Visibility forecast

Observer location: undefined°, undefined

Span
Click to sort rows by Start time (UTC) header in descending order
Start Az.
Max El. time (UTC)
Max El. Az.
Max El.
End time (UTC)
End Az.
9 mins2024-12-26 16:41:04.845Z22.448° NNE2024-12-26 16:45:04.845Z70.237° E24.281°2024-12-26 16:50:04.845Z126.643° SE
9 mins2024-12-26 18:28:04.845Z330.308° NNW2024-12-26 18:32:04.845Z267.021° W34.63°2024-12-26 18:37:04.845Z203.276° SW
9 mins2024-12-27 06:20:04.845Z172.83° S2024-12-27 06:24:04.845Z102.052° ESE42.992°2024-12-27 06:29:04.845Z14.042° NNE
5 mins2024-12-27 08:09:04.845Z266.625° W2024-12-27 08:11:04.845Z288.727° WNW15.181°2024-12-27 08:14:04.845Z321.932° NNW
|